This is the latest recevied weather packets stored in our database for station/object OZ1IEP-5. If no packets are shown the sender has not sent any weather packets the latest 10 day(s).
| Time | Temp. | Humidity | Pressure | Rain* | Wind** | Luminosity | Snow |
|---|---|---|---|---|---|---|---|
| 1777482008 | 12.22° C | 53% | 1028.4 hPa | 0 mm | - | 81 W/m² | - |
| 1777481406 | 12.22° C | 51% | 1028.6 hPa | 0 mm | - | 56 W/m² | - |
| 1777480805 | 12.22° C | 53% | 1028.6 hPa | 0 mm | - | 39 W/m² | - |
| 1777480207 | 12.22° C | 52% | 1028.7 hPa | 0 mm | - | 44 W/m² | - |
| 1777479605 | 12.22° C | 52% | 1028.7 hPa | 0 mm | - | 40 W/m² | - |
| 1777479006 | 12.78° C | 52% | 1028.7 hPa | 0 mm | - | 53 W/m² | - |
| 1777478408 | 12.78° C | 53% | 1028.8 hPa | 0 mm | - | 149 W/m² | - |
| 1777477806 | 12.78° C | 55% | 1028.9 hPa | 0 mm | - | 54 W/m² | - |
| 1777477205 | 12.78° C | 54% | 1028.9 hPa | 0 mm | - | 53 W/m² | - |
| 1777476607 | 13.33° C | 54% | 1028.9 hPa | 0 mm | - | 72 W/m² | - |
| 1777476006 | 13.33° C | 53% | 1028.9 hPa | 0 mm | - | 199 W/m² | - |
| 1777475406 | 13.33° C | 52% | 1028.9 hPa | 0 mm | - | 67 W/m² | - |
| 1777474808 | 13.33° C | 47% | 1028.9 hPa | 0 mm | - | 84 W/m² | - |
| 1777474205 | 13.33° C | 45% | 1029 hPa | 0 mm | - | 473 W/m² | - |
| 1777473605 | 13.33° C | 45% | 1028.9 hPa | 0 mm | - | 522 W/m² | - |
| 1777473007 | 13.33° C | 45% | 1029 hPa | 0 mm | - | 564 W/m² | - |
| 1777472405 | 13.33° C | 48% | 1029.1 hPa | 0 mm | - | 603 W/m² | - |
| 1777471806 | 13.33° C | 48% | 1029 hPa | 0 mm | - | 598 W/m² | - |
| 1777471207 | 13.33° C | 48% | 1029.1 hPa | 0 mm | - | 613 W/m² | - |
| 1777470606 | 13.33° C | 47% | 1029.1 hPa | 0 mm | - | 633 W/m² | - |
| 1777470006 | 13.33° C | 48% | 1029.2 hPa | 0 mm | - | 606 W/m² | - |
| 1777469409 | 13.33° C | 48% | 1029.3 hPa | 0 mm | - | 668 W/m² | - |
| 1777468806 | 13.33° C | 49% | 1029.3 hPa | 0 mm | - | 686 W/m² | - |
| 1777468206 | 13.33° C | 49% | 1029.3 hPa | 0 mm | - | 698 W/m² | - |
| 1777467608 | 13.33° C | 49% | 1029.3 hPa | 0 mm | - | 710 W/m² | - |
* Rain latest hour (hover to see other rain measurements)
** Current wind speed in m/s (hover to see current wind gust speed)